WZZ4764 LHBP-LIBD

Flight info

Callsign WZZ4764
Flight time 1h 13m
Altitude 36000
Route DUZLA2L DUZLA DCT OSDUK DCT BOSNA DCT AIOSA/N0447F370 DCT BANAV BANAV1F
Aircraft A21N/M-SDE1E2E3FGIJ1J4RWXY/LB1

Departure

Time 2026-04-26 10:01
Airport Budapest Liszt Ferenc International Airport (LHBP)

Arrival

Time 2026-04-26 11:14
Airport Bari Karol Wojtyła International Airport (LIBD)
Time Latitude Longitude Altitude Speed Heading
2026-04-26 09:35 47.43454 19.26576 474 ft 0 kts 222°
2026-04-26 09:52 47.43460 19.26584 474 ft 2 kts 221°
2026-04-26 09:52 47.43480 19.26617 474 ft 2 kts 258°
2026-04-26 09:52 47.43480 19.26640 473 ft 2 kts 291°
2026-04-26 09:53 47.43476 19.26652 473 ft 1 kts 310°
2026-04-26 09:53 47.43470 19.26659 473 ft 0 kts 312°
2026-04-26 09:55 47.43475 19.26651 473 ft 3 kts 312°
2026-04-26 09:55 47.43491 19.26625 474 ft 3 kts 312°
2026-04-26 09:55 47.43510 19.26595 474 ft 5 kts 312°
2026-04-26 09:56 47.43548 19.26534 475 ft 9 kts 313°
2026-04-26 09:56 47.43605 19.26442 476 ft 15 kts 312°
2026-04-26 09:56 47.43672 19.26312 477 ft 15 kts 286°
2026-04-26 09:56 47.43675 19.26160 477 ft 14 kts 268°
2026-04-26 09:57 47.43700 19.26025 478 ft 13 kts 304°
2026-04-26 09:57 47.43737 19.25941 478 ft 8 kts 270°
2026-04-26 09:57 47.43697 19.25860 477 ft 11 kts 222°
2026-04-26 09:57 47.43631 19.25772 475 ft 13 kts 222°
2026-04-26 09:58 47.43560 19.25676 473 ft 14 kts 223°
2026-04-26 09:58 47.43485 19.25574 470 ft 15 kts 221°
2026-04-26 09:58 47.43400 19.25460 465 ft 17 kts 222°
2026-04-26 09:58 47.43312 19.25343 462 ft 17 kts 221°
2026-04-26 09:59 47.43216 19.25213 456 ft 19 kts 222°
2026-04-26 09:59 47.43124 19.25090 452 ft 16 kts 224°
2026-04-26 09:59 47.43109 19.24930 448 ft 17 kts 299°
2026-04-26 09:59 47.43122 19.24904 447 ft 0 kts 310°
2026-04-26 10:00 47.43155 19.24850 447 ft 28 kts 312°
2026-04-26 10:00 47.43457 19.24357 439 ft 97 kts 312°
2026-04-26 10:00 47.44048 19.23404 445 ft 150 kts 311°
2026-04-26 10:00 47.44782 19.22251 968 ft 154 kts 312°
2026-04-26 10:01 47.45467 19.21125 1677 ft 150 kts 313°
2026-04-26 10:01 47.46149 19.20007 2358 ft 147 kts 315°
2026-04-26 10:01 47.46869 19.18880 2774 ft 159 kts 315°
2026-04-26 10:01 47.47635 19.17628 3206 ft 171 kts 316°
2026-04-26 10:02 47.48321 19.16096 3626 ft 189 kts 294°
2026-04-26 10:02 47.48367 19.14036 3924 ft 224 kts 260°
2026-04-26 10:02 47.47833 19.11764 4307 ft 245 kts 257°
2026-04-26 10:02 47.47212 19.09300 4777 ft 264 kts 252°
2026-04-26 10:03 47.46057 19.07101 5475 ft 285 kts 224°
2026-04-26 10:03 47.44295 19.05699 6309 ft 294 kts 208°
2026-04-26 10:03 47.42381 19.04632 7073 ft 298 kts 207°
2026-04-26 10:03 47.40441 19.03514 7811 ft 300 kts 210°
2026-04-26 10:04 47.38541 19.02293 8542 ft 301 kts 212°
2026-04-26 10:04 47.36636 19.00981 9292 ft 302 kts 213°
2026-04-26 10:04 47.34729 18.99628 9980 ft 305 kts 214°
2026-04-26 10:04 47.32834 18.98279 10573 ft 311 kts 213°
2026-04-26 10:05 47.30821 18.96874 10904 ft 326 kts 212°
2026-04-26 10:05 47.28735 18.95442 11412 ft 334 kts 212°
2026-04-26 10:05 47.26624 18.94008 12082 ft 336 kts 211°
2026-04-26 10:05 47.24495 18.92562 12752 ft 338 kts 211°
2026-04-26 10:06 47.22345 18.91102 13380 ft 340 kts 212°
2026-04-26 10:06 47.20209 18.89648 13993 ft 342 kts 211°
2026-04-26 10:06 47.18039 18.88170 14593 ft 345 kts 211°
2026-04-26 10:06 47.15868 18.86691 15174 ft 348 kts 211°
2026-04-26 10:07 47.13668 18.85194 15722 ft 352 kts 211°
2026-04-26 10:07 47.11449 18.83688 16275 ft 354 kts 211°
2026-04-26 10:07 47.09190 18.82152 16822 ft 357 kts 211°
2026-04-26 10:07 47.06939 18.80627 17314 ft 361 kts 211°
2026-04-26 10:08 47.04640 18.79066 17822 ft 365 kts 211°
2026-04-26 10:08 47.02333 18.77501 18317 ft 368 kts 210°
2026-04-26 10:08 46.99991 18.75919 18799 ft 371 kts 211°
2026-04-26 10:08 46.97648 18.74336 19258 ft 374 kts 210°
2026-04-26 10:09 46.95237 18.72800 19732 ft 379 kts 207°
2026-04-26 10:09 46.92778 18.71474 20195 ft 383 kts 205°
2026-04-26 10:09 46.90245 18.70153 20653 ft 385 kts 205°
2026-04-26 10:09 46.87707 18.68836 21084 ft 388 kts 205°
2026-04-26 10:10 46.85152 18.67512 21499 ft 391 kts 205°
2026-04-26 10:10 46.82573 18.66177 21913 ft 394 kts 205°
2026-04-26 10:10 46.79984 18.64837 22315 ft 396 kts 205°
2026-04-26 10:10 46.77380 18.63486 22692 ft 399 kts 204°
2026-04-26 10:11 46.74750 18.62124 23080 ft 402 kts 204°
2026-04-26 10:11 46.72111 18.60759 23491 ft 403 kts 204°
2026-04-26 10:11 46.69466 18.59392 23874 ft 406 kts 204°
2026-04-26 10:11 46.66813 18.58023 24238 ft 408 kts 204°
2026-04-26 10:12 46.64120 18.56633 24612 ft 410 kts 204°
2026-04-26 10:12 46.61439 18.55252 24963 ft 412 kts 204°
2026-04-26 10:12 46.58733 18.53858 25321 ft 414 kts 204°
2026-04-26 10:12 46.56004 18.52456 25678 ft 416 kts 204°
2026-04-26 10:13 46.53263 18.51049 26017 ft 418 kts 204°
2026-04-26 10:13 46.50515 18.49639 26352 ft 420 kts 204°
2026-04-26 10:13 46.47749 18.48220 26681 ft 422 kts 204°
2026-04-26 10:13 46.44956 18.46790 27020 ft 424 kts 203°
2026-04-26 10:14 46.42164 18.45362 27362 ft 425 kts 203°
2026-04-26 10:14 46.39369 18.43935 27675 ft 426 kts 203°
2026-04-26 10:14 46.36597 18.42520 27993 ft 428 kts 203°
2026-04-26 10:14 46.33776 18.41084 28302 ft 430 kts 202°
2026-04-26 10:15 46.30951 18.39645 28601 ft 431 kts 202°
2026-04-26 10:15 46.28124 18.38209 28905 ft 433 kts 202°
2026-04-26 10:15 46.25254 18.36750 29208 ft 434 kts 202°
2026-04-26 10:15 46.22401 18.35301 29509 ft 436 kts 202°
2026-04-26 10:16 46.19521 18.33841 29796 ft 437 kts 201°
2026-04-26 10:16 46.16643 18.32384 30071 ft 439 kts 201°
2026-04-26 10:16 46.13754 18.30923 30343 ft 441 kts 201°
2026-04-26 10:16 46.10841 18.29451 30636 ft 443 kts 201°
2026-04-26 10:17 46.07958 18.27997 30939 ft 443 kts 201°
2026-04-26 10:17 46.05025 18.26521 31224 ft 445 kts 201°
2026-04-26 10:17 46.02115 18.25055 31517 ft 446 kts 201°
2026-04-26 10:17 45.99175 18.23575 31813 ft 446 kts 201°
2026-04-26 10:18 45.96251 18.22107 32091 ft 447 kts 201°
2026-04-26 10:18 45.93298 18.20627 32350 ft 448 kts 201°
2026-04-26 10:18 45.90381 18.19165 32606 ft 449 kts 201°
2026-04-26 10:18 45.87421 18.17683 32859 ft 450 kts 201°
2026-04-26 10:19 45.84445 18.16198 33101 ft 451 kts 201°
2026-04-26 10:19 45.81469 18.14730 33402 ft 451 kts 200°
2026-04-26 10:19 45.78451 18.13453 33758 ft 450 kts 197°
2026-04-26 10:19 45.75434 18.12444 34111 ft 449 kts 193°
2026-04-26 10:20 45.72370 18.11612 34427 ft 447 kts 192°
2026-04-26 10:20 45.70318 18.11061 34612 ft 447 kts 192°
2026-04-26 10:20 45.66240 18.09967 34903 ft 448 kts 192°
2026-04-26 10:20 45.63176 18.09143 35101 ft 450 kts 192°
2026-04-26 10:21 45.60130 18.08324 35300 ft 450 kts 192°
2026-04-26 10:21 45.57033 18.07493 35505 ft 451 kts 192°
2026-04-26 10:21 45.53949 18.06666 35700 ft 452 kts 192°
2026-04-26 10:21 45.50849 18.05836 35871 ft 453 kts 193°
2026-04-26 10:22 45.47748 18.05007 36038 ft 454 kts 193°
2026-04-26 10:22 45.44624 18.04172 36124 ft 455 kts 193°
2026-04-26 10:22 45.38425 18.02515 36125 ft 456 kts 193°
2026-04-26 10:23 45.32610 18.00963 36120 ft 455 kts 193°
2026-04-26 10:23 45.26391 17.99309 36123 ft 454 kts 193°
2026-04-26 10:24 45.20160 17.97657 36120 ft 455 kts 193°
2026-04-26 10:24 45.13907 17.96002 36120 ft 455 kts 193°
2026-04-26 10:25 45.07711 17.94366 36113 ft 455 kts 193°
2026-04-26 10:25 45.01454 17.92717 36110 ft 455 kts 193°
2026-04-26 10:26 44.95231 17.91081 36111 ft 455 kts 193°
2026-04-26 10:26 44.88997 17.89445 36109 ft 455 kts 193°
2026-04-26 10:27 44.82746 17.87809 36110 ft 455 kts 193°
2026-04-26 10:27 44.76543 17.86189 36111 ft 455 kts 193°
2026-04-26 10:28 44.70309 17.84565 36117 ft 455 kts 193°
2026-04-26 10:28 44.64128 17.82957 36122 ft 455 kts 193°
2026-04-26 10:29 44.57894 17.81341 36130 ft 454 kts 193°
2026-04-26 10:29 44.51676 17.79731 36137 ft 454 kts 193°
2026-04-26 10:30 44.45474 17.78129 36142 ft 453 kts 193°
2026-04-26 10:30 44.39259 17.76528 36145 ft 453 kts 193°
2026-04-26 10:31 44.33014 17.75026 36141 ft 454 kts 191°
2026-04-26 10:31 44.26772 17.73689 36141 ft 454 kts 191°
2026-04-26 10:32 44.20535 17.72352 36148 ft 453 kts 191°
2026-04-26 10:32 44.14299 17.71007 36150 ft 453 kts 191°
2026-04-26 10:33 44.08084 17.69665 36155 ft 452 kts 191°
2026-04-26 10:33 44.05020 17.69007 36149 ft 438 kts 191°
2026-04-26 10:33 44.02036 17.68367 36154 ft 431 kts 191°
2026-04-26 10:34 43.96109 17.67090 36162 ft 430 kts 192°
2026-04-26 10:34 43.90210 17.65821 36160 ft 430 kts 192°
2026-04-26 10:35 43.84302 17.64553 36162 ft 429 kts 191°
2026-04-26 10:35 43.78419 17.63296 36161 ft 428 kts 192°
2026-04-26 10:36 43.72518 17.62035 36156 ft 429 kts 191°
2026-04-26 10:36 43.66639 17.60781 36155 ft 429 kts 192°
2026-04-26 10:37 43.60751 17.59529 36146 ft 429 kts 192°
2026-04-26 10:37 43.54845 17.58276 36141 ft 429 kts 192°
2026-04-26 10:38 43.48956 17.57027 36139 ft 428 kts 192°
2026-04-26 10:38 43.43095 17.55788 36133 ft 428 kts 192°
2026-04-26 10:39 43.37224 17.54550 36120 ft 428 kts 192°
2026-04-26 10:39 43.31334 17.53309 36109 ft 428 kts 192°
2026-04-26 10:40 43.25471 17.52077 36091 ft 428 kts 192°
2026-04-26 10:40 43.19600 17.50844 36080 ft 427 kts 192°
2026-04-26 10:41 43.13704 17.49609 36071 ft 427 kts 192°
2026-04-26 10:41 43.07879 17.48391 36062 ft 426 kts 192°
2026-04-26 10:42 43.01995 17.47164 36064 ft 427 kts 192°
2026-04-26 10:42 42.96134 17.45945 36054 ft 427 kts 192°
2026-04-26 10:43 42.90200 17.44710 36059 ft 435 kts 192°
2026-04-26 10:43 42.84127 17.43448 36064 ft 445 kts 192°
2026-04-26 10:44 42.78013 17.42183 36064 ft 448 kts 192°
2026-04-26 10:44 42.71833 17.40909 36069 ft 448 kts 192°
2026-04-26 10:45 42.65701 17.39645 36067 ft 448 kts 192°
2026-04-26 10:45 42.59518 17.38374 36070 ft 448 kts 192°
2026-04-26 10:46 42.53371 17.37111 36065 ft 448 kts 192°
2026-04-26 10:46 42.47210 17.35849 36067 ft 448 kts 192°
2026-04-26 10:47 42.41061 17.34592 36073 ft 447 kts 191°
2026-04-26 10:47 42.34925 17.33340 36074 ft 447 kts 191°
2026-04-26 10:48 42.28775 17.32089 36013 ft 446 kts 191°
2026-04-26 10:48 42.25683 17.31460 35452 ft 447 kts 191°
2026-04-26 10:48 42.22604 17.30833 34457 ft 453 kts 191°
2026-04-26 10:49 42.19502 17.30201 33424 ft 460 kts 191°
2026-04-26 10:49 42.16352 17.29561 32470 ft 464 kts 191°
2026-04-26 10:49 42.13166 17.28916 31828 ft 460 kts 191°
2026-04-26 10:49 42.10030 17.28285 31332 ft 454 kts 191°
2026-04-26 10:50 42.06915 17.27658 30788 ft 448 kts 191°
2026-04-26 10:50 42.04870 17.27246 30328 ft 444 kts 191°
2026-04-26 10:50 42.00844 17.26437 29246 ft 438 kts 191°
2026-04-26 10:50 41.97881 17.25841 28453 ft 433 kts 191°
2026-04-26 10:51 41.94913 17.25180 27677 ft 428 kts 196°
2026-04-26 10:51 41.89877 17.21423 26551 ft 408 kts 224°
2026-04-26 10:51 41.87754 17.18885 26036 ft 404 kts 224°
2026-04-26 10:52 41.85675 17.16367 25492 ft 400 kts 225°
2026-04-26 10:52 41.83623 17.13894 24973 ft 396 kts 224°
2026-04-26 10:52 41.81593 17.11464 24447 ft 393 kts 224°
2026-04-26 10:52 41.79539 17.09020 23911 ft 390 kts 224°
2026-04-26 10:53 41.77533 17.06640 23388 ft 386 kts 224°
2026-04-26 10:53 41.75525 17.04262 22865 ft 383 kts 224°
2026-04-26 10:53 41.73480 17.02059 22296 ft 384 kts 216°
2026-04-26 10:54 41.68518 16.99370 21241 ft 384 kts 199°
2026-04-26 10:54 41.65966 16.98418 20716 ft 382 kts 198°
2026-04-26 10:54 41.63396 16.97468 20168 ft 380 kts 198°
2026-04-26 10:54 41.60875 16.96528 19654 ft 377 kts 199°
2026-04-26 10:55 41.58348 16.95578 19141 ft 375 kts 199°
2026-04-26 10:55 41.55864 16.94639 18613 ft 373 kts 199°
2026-04-26 10:55 41.53361 16.93680 18091 ft 370 kts 200°
2026-04-26 10:55 41.50951 16.92564 17593 ft 367 kts 203°
2026-04-26 10:56 41.48573 16.91382 17073 ft 365 kts 203°
2026-04-26 10:56 41.46213 16.90202 16601 ft 362 kts 203°
2026-04-26 10:56 41.43870 16.89031 16098 ft 360 kts 202°
2026-04-26 10:56 41.41510 16.87855 15585 ft 358 kts 202°
2026-04-26 10:57 41.39193 16.86704 15092 ft 357 kts 202°
2026-04-26 10:57 41.36887 16.85560 14663 ft 352 kts 202°
2026-04-26 10:57 41.34603 16.84429 14334 ft 345 kts 202°
2026-04-26 10:57 41.32371 16.83326 13985 ft 340 kts 202°
2026-04-26 10:58 41.30195 16.82169 13620 ft 334 kts 209°
2026-04-26 10:58 41.28456 16.80205 13221 ft 325 kts 236°
2026-04-26 10:58 41.27309 16.77696 12773 ft 313 kts 242°
2026-04-26 10:58 41.26265 16.75240 12177 ft 306 kts 242°
2026-04-26 10:59 41.25221 16.72813 11578 ft 300 kts 242°
2026-04-26 10:59 41.24175 16.70421 11184 ft 294 kts 242°
2026-04-26 10:59 41.23138 16.68073 11090 ft 295 kts 242°
2026-04-26 10:59 41.22104 16.65746 11087 ft 291 kts 242°
2026-04-26 11:00 41.21097 16.63427 11071 ft 282 kts 245°
2026-04-26 11:00 41.20291 16.61112 10842 ft 275 kts 251°
2026-04-26 11:00 41.19610 16.58758 10548 ft 270 kts 252°
2026-04-26 11:00 41.18958 16.56445 10248 ft 267 kts 252°
2026-04-26 11:01 41.18314 16.54158 9918 ft 266 kts 252°
2026-04-26 11:01 41.17659 16.51852 9561 ft 265 kts 252°
2026-04-26 11:01 41.17008 16.49566 9205 ft 264 kts 252°
2026-04-26 11:01 41.16367 16.47323 8873 ft 262 kts 252°
2026-04-26 11:02 41.15726 16.45084 8607 ft 258 kts 252°
2026-04-26 11:02 41.15095 16.42881 8330 ft 254 kts 252°
2026-04-26 11:02 41.14465 16.40682 8029 ft 252 kts 252°
2026-04-26 11:02 41.13850 16.38530 7714 ft 251 kts 252°
2026-04-26 11:03 41.13232 16.36362 7393 ft 250 kts 252°
2026-04-26 11:03 41.12614 16.34197 7064 ft 249 kts 251°
2026-04-26 11:03 41.12008 16.32083 6748 ft 247 kts 251°
2026-04-26 11:03 41.11393 16.29938 6430 ft 246 kts 251°
2026-04-26 11:04 41.10792 16.27849 6124 ft 245 kts 251°
2026-04-26 11:04 41.10181 16.25730 5809 ft 244 kts 251°
2026-04-26 11:04 41.09518 16.23676 5485 ft 245 kts 239°
2026-04-26 11:04 41.08234 16.22228 5102 ft 248 kts 200°
2026-04-26 11:05 41.06524 16.22121 4770 ft 247 kts 163°
2026-04-26 11:05 41.04953 16.22965 4486 ft 244 kts 153°
2026-04-26 11:05 41.03414 16.23953 4178 ft 243 kts 154°
2026-04-26 11:05 41.01905 16.24865 4070 ft 232 kts 152°
2026-04-26 11:06 41.00724 16.26184 4022 ft 225 kts 119°
2026-04-26 11:06 41.00285 16.28139 4023 ft 221 kts 85°
2026-04-26 11:06 41.00608 16.30110 4034 ft 219 kts 67°
2026-04-26 11:06 41.01205 16.31954 4026 ft 218 kts 63°
2026-04-26 11:07 41.01836 16.33810 4020 ft 218 kts 64°
2026-04-26 11:07 41.02432 16.35647 4013 ft 218 kts 65°
2026-04-26 11:07 41.03007 16.37515 4015 ft 218 kts 66°
2026-04-26 11:07 41.03560 16.39388 4014 ft 218 kts 67°
2026-04-26 11:08 41.04097 16.41263 4012 ft 218 kts 67°
2026-04-26 11:08 41.04628 16.43152 4008 ft 218 kts 67°
2026-04-26 11:08 41.05149 16.45024 4004 ft 218 kts 68°
2026-04-26 11:08 41.05673 16.46917 4006 ft 218 kts 68°
2026-04-26 11:09 41.06198 16.48814 3968 ft 217 kts 68°
2026-04-26 11:09 41.06710 16.50661 3781 ft 210 kts 68°
2026-04-26 11:09 41.07201 16.52426 3583 ft 201 kts 67°
2026-04-26 11:09 41.07677 16.54134 3289 ft 197 kts 67°
2026-04-26 11:10 41.08142 16.55795 3011 ft 187 kts 67°
2026-04-26 11:10 41.08584 16.57374 2774 ft 178 kts 67°
2026-04-26 11:10 41.09002 16.58865 2523 ft 170 kts 66°
2026-04-26 11:10 41.09396 16.60271 2285 ft 153 kts 66°
2026-04-26 11:11 41.09748 16.61536 2051 ft 145 kts 67°
2026-04-26 11:11 41.10085 16.62794 1831 ft 145 kts 67°
2026-04-26 11:11 41.10445 16.64026 1672 ft 144 kts 65°
2026-04-26 11:11 41.10799 16.65262 1574 ft 143 kts 67°
2026-04-26 11:12 41.11137 16.66507 1460 ft 143 kts 68°
2026-04-26 11:12 41.11493 16.67756 1280 ft 144 kts 65°
2026-04-26 11:12 41.11855 16.68975 1049 ft 144 kts 67°
2026-04-26 11:12 41.12204 16.70224 831 ft 145 kts 67°
2026-04-26 11:13 41.12557 16.71472 658 ft 143 kts 66°
2026-04-26 11:13 41.12900 16.72688 450 ft 143 kts 66°
2026-04-26 11:13 41.13250 16.73938 272 ft 144 kts 67°
2026-04-26 11:13 41.13585 16.75116 175 ft 119 kts 70°
2026-04-26 11:14 41.13817 16.75938 156 ft 69 kts 70°
2026-04-26 11:14 41.13924 16.76316 148 ft 30 kts 70°
2026-04-26 11:14 41.13990 16.76552 143 ft 23 kts 69°
2026-04-26 11:14 41.13971 16.76706 140 ft 8 kts 127°
2026-04-26 11:15 41.13917 16.76693 141 ft 8 kts 211°
2026-04-26 11:15 41.13869 16.76651 142 ft 7 kts 214°
2026-04-26 11:15 41.13829 16.76610 144 ft 6 kts 230°
2026-04-26 11:15 41.13805 16.76563 145 ft 5 kts 224°
2026-04-26 11:16 41.13761 16.76555 146 ft 7 kts 166°
2026-04-26 11:16 41.13703 16.76548 146 ft 9 kts 204°
2026-04-26 11:16 41.13652 16.76498 148 ft 9 kts 236°
2026-04-26 11:16 41.13625 16.76416 149 ft 9 kts 250°
2026-04-26 11:17 41.13604 16.76341 151 ft 5 kts 249°
2026-04-26 11:17 41.13579 16.76320 152 ft 4 kts 174°
2026-04-26 11:17 41.13544 16.76334 152 ft 5 kts 160°
2026-04-26 11:17 41.13527 16.76342 152 ft 0 kts 159°